ATLAS CENTAUR 2 1 00694U 63047A 10068.78151817 .00000684 00000-0 80680-4 0 2113 2 00694 30.3558 299.5477 0616284 151.7717 211.7731 13.95162930310560 THOR AGENA D R/B 1 00733U 64002A 10068.75428419 .00000009 00000-0 21746-4 0 163 2 00733 99.0915 108.3699 0034231 344.9823 15.0343 14.31286696402198 SL-3 R/B 1 00877U 64053B 10068.71251275 -.00000041 00000-0 16565-4 0 3408 2 00877 65.0784 126.7028 0052133 68.7263 291.9397 14.58109414414057 SL-8 R/B 1 02802U 67045B 10068.52622293 -.00000026 00000-0 44384-6 0 2485 2 02802 74.0080 67.3635 0066914 39.8487 320.7551 14.42488570245779 SL-8 R/B 1 03230U 68040B 10068.71847175 .00000250 00000-0 33931-4 0 9036 2 03230 74.0365 134.1574 0033029 70.1906 290.2822 14.84302562240646 OAO 2 1 03597U 68110A 10068.94932763 .00000012 00000-0 87183-5 0 2851 2 03597 34.9946 51.9943 0005908 249.5964 110.4094 14.44884885173412 ISIS 1 1 03669U 69009A 10068.76499876 .00000005 00000-0 -91185-6 0 266 2 03669 88.4118 82.2988 1714460 347.8072 8.5948 11.28867513689174 METEOR 1-1 1 03835U 69029A 10068.95129710 .00006630 00000-0 11872-3 0 3276 2 03835 81.1626 81.5197 0008260 32.8377 327.3397 15.49736117238519 SERT 2 1 04327U 70009A 10068.70305546 .00000032 00000-0 10000-3 0 1347 2 04327 99.1760 290.1066 0005100 5.6905 354.4280 13.58234316986842 SL-3 R/B 1 04814U 70113B 10068.83680455 .00001407 00000-0 74882-4 0 2069 2 04814 81.1494 274.4693 0041440 42.6207 317.8193 15.13821889130423 SL-3 R/B 1 05118U 71028B 10068.74806636 -.00000189 00000-0 -15748-4 0 3801 2 05118 81.2376 296.3818 0049797 63.9977 296.6319 15.02443975103996 ASTEX 1 1 05560U 71089A 10068.52331929 .00000088 00000-0 24789-4 0 519 2 05560 92.7126 68.8754 0015313 308.5566 51.4273 14.46238761 16954 SL-8 R/B 1 05730U 71119B 10068.86220272 .00001095 00000-0 83964-4 0 4116 2 05730 73.8988 60.8275 0800453 96.7864 272.4914 13.77384094836864 COSMOS 482 DESCENT CRAFT 1 06073U 72023E 10068.52839272 .00012779 26976-5 97284-4 0 7367 2 06073 52.1175 95.6147 2178606 240.5579 96.0683 11.23291508 45073 OAO 3 (COPERNICUS) 1 06153U 72065A 10068.85688683 .00000044 00000-0 14273-4 0 4200 2 06153 35.0087 357.1852 0006967 28.4362 331.6715 14.56593079993202 ATLAS CENTAUR R/B 1 06155U 72065B 10068.93563397 .00000111 00000-0 22684-4 0 1033 2 06155 35.0065 12.1429 0041059 276.0647 83.5382 14.68028061 980 OPS 8180 (RADCAT) 1 06212U 72076A 10068.74002882 .00003709 00000-0 13081-3 0 9624 2 06212 98.5688 122.6703 0003717 148.8112 211.3328 15.30065257163465 SL-8 R/B 1 07004U 73107B 10068.60136561 .00002610 00000-0 10554-3 0 2701 2 07004 73.9634 92.4225 0427528 253.2569 102.1288 14.69124739839265 SL-8 R/B 1 07338U 74044B 10068.79371333 .00014135 00000-0 26877-3 0 1114 2 07338 82.8832 187.0951 0207168 211.3315 147.5472 15.27958742840108 DELTA 1 R/B 1 08063U 75072B 10068.85610359 .00010313 00000-0 28424-3 0 5010 2 08063 89.1452 314.0583 0932591 173.3747 188.0862 13.72148526505061 SL-8 R/B 1 08459U 75112B 10068.77283438 .00000044 00000-0 24122-4 0 8979 2 08459 74.0611 303.3595 0015555 59.8851 300.3838 14.35899557792810 SL-3 R/B 1 10114U 77057B 10068.76519306 .00000401 00000-0 29316-4 0 671 2 10114 97.4745 324.4785 0017321 158.1683 202.0205 15.08881493782010 SL-3 R/B 1 10861U 78045B 10068.79227010 .00002190 00000-0 55146-4 0 2645 2 10861 81.2014 120.5254 0021271 140.7990 219.4805 15.39176680746165 SEASAT 1 1 10967U 78064A 10068.71327289 -.00000060 00000-0 23340-4 0 615 2 10967 108.0105 157.2513 0003540 250.0286 110.0482 14.42185116663452 SL-14 R/B 1 11267U 79011B 10068.81817433 .00000114 00000-0 98950-5 0 538 2 11267 82.5229 213.5414 0019455 53.0072 307.2930 14.87037900680476 SL-8 R/B 1 11574U 79089B 10068.51294846 .00000073 00000-0 31904-4 0 5206 2 11574 74.0667 78.6097 0016748 297.2103 62.7344 14.39624835594725 SL-14 R/B 1 11672U 80005B 10068.53131430 .00000065 00000-0 45939-5 0 6640 2 11672 82.5115 63.1061 0018857 120.4658 239.8429 14.86088286628614 SL-3 R/B 1 11849U 80051B 10068.83088539 .00001508 00000-0 61650-4 0 803 2 11849 97.7335 213.8374 0011960 48.0342 312.1915 15.25976215628174 SL-3 R/B 1 11933U 80069B 10068.80950852 .00002115 00000-0 61593-4 0 9438 2 11933 81.2164 78.3899 0023473 17.1133 343.0924 15.34640447621899 COSMOS 1220 1 12054U 80089A 10068.76056614 .00002599 00000-0 11325-3 0 2215 2 12054 64.9748 160.2746 0041017 30.0788 330.2670 15.23960448508687 SL-8 R/B 1 12139U 81003B 10068.79407969 .00004861 00000-0 29399-3 0 01 2 12139 82.9569 206.7296 0591850 147.1633 216.7859 14.24915932465005 SL-8 R/B 1 12389U 81033B 10068.74126064 .00006347 00000-0 20148-3 0 6033 2 12389 82.9123 88.3878 0404023 33.9907 328.6477 14.78971131476226 SL-3 R/B 1 12465U 81046B 10068.76241736 .00000434 00000-0 28759-4 0 636 2 12465 81.2288 175.9206 0038734 137.2914 223.1359 15.04526149566886 METEOR PRIRODA 1 12585U 81065A 10068.69501331 .00000569 00000-0 41465-4 0 6018 2 12585 97.3723 109.4774 0018279 246.3655 113.5644 15.07407881560550 SL-3 R/B 1 12904U 81103B 10068.75953235 -.00000029 00000-0 -42898-5 0 1512 2 12904 81.1783 52.5710 0033648 118.3559 242.1064 14.98596723 94132 SL-3 R/B 1 13068U 82013B 10068.77040985 .00000854 00000-0 65829-4 0 1530 2 13068 81.2090 358.5558 0026104 42.8948 317.4318 15.00375814524357 SL-3 R/B 1 13154U 82039B 10068.80329218 .00000367 00000-0 32881-4 0 9075 2 13154 81.1870 335.8011 0043135 261.4453 98.1855 14.92818506506734 COSMOS 1400 1 13402U 82079A 10068.82561205 .00001331 00000-0 46320-4 0 279 2 13402 81.1332 167.7202 0006411 297.1736 62.8844 15.28974563509851 SL-3 R/B 1 13403U 82079B 10068.70269298 .00000480 00000-0 37026-4 0 2756 2 13403 81.1708 53.4132 0039570 343.8990 16.0985 14.99225928497770 SL-3 R/B 1 13819U 83010B 10068.76197528 .00001061 00000-0 71574-4 0 6818 2 13819 81.1085 357.2304 0038924 100.7920 259.7682 15.05185103472928 COSMOS 1484 1 14207U 83075A 10068.78239175 .00005466 00000-0 11147-3 0 5460 2 14207 97.5633 202.4877 0015441 344.0625 16.0129 15.46552701902396 SL-3 R/B 1 14208U 83075B 10068.74156887 .00000073 00000-0 10122-4 0 8572 2 14208 97.6423 124.8508 0045967 205.2191 154.6791 15.02314815447678 COSMOS 1500 1 14372U 83099A 10068.64630998 .00000990 00000-0 68963-4 0 3624 2 14372 82.5292 56.7770 0013099 190.9355 169.1659 15.04282707436841 SL-8 R/B 1 14484U 83111B 10068.74944193 .00005034 00000-0 16010-3 0 1491 2 14484 82.8485 316.6154 0426679 163.0296 198.5714 14.74439261339501 COSMOS 1536 1 14699U 84013A 10068.77310563 .00000478 00000-0 37936-4 0 7272 2 14699 82.5284 6.4986 0016383 68.9355 291.3635 14.98163084414507 COSMOS 1544 1 14819U 84027A 10068.72603639 .00001295 00000-0 82052-4 0 7362 2 14819 82.5303 132.8803 0014935 308.0708 51.9160 15.08033639413399 SL-14 R/B 1 14820U 84027B 10068.76283441 .00000107 00000-0 10362-4 0 3398 2 14820 82.5418 303.7510 0019215 169.4948 190.6686 14.82119615402317 ERBS 1 15354U 84108B 10068.72574664 .00000342 00000-0 32842-4 0 3272 2 15354 56.9863 138.8580 0017790 177.1960 182.9215 15.16036195392329 SL-8 R/B 1 15483U 85006B 10068.83309377 .00000007 00000-0 11414-4 0 66 2 15483 74.0443 186.6050 0018502 103.0661 257.2567 14.35249280315331 SL-12 R/B(2) 1 15772U 85042D 10068.78211050 -.00000009 00000-0 17717-4 0 1911 2 15772 71.1069 178.3877 0037054 213.6500 146.2252 14.20720075284100 SL-14 R/B 1 15945U 85069B 10068.67591218 .00000084 00000-0 74952-5 0 3163 2 15945 82.5241 97.8668 0021799 42.0133 318.2740 14.82456762327274 SL-3 R/B 1 16111U 85090B 10068.79929882 .00000501 00000-0 26287-4 0 1886 2 16111 97.5550 134.5419 0036069 116.1764 244.3158 15.19926096337446 SL-16 R/B 1 16182U 85097B 10068.83337304 -.00000295 00000-0 -12555-3 0 926 2 16182 71.0008 195.6478 0007614 175.4420 184.6783 14.15961649260176 SL-14 R/B 1 16496U 86006B 10068.76220979 .00000104 00000-0 99496-5 0 2308 2 16496 82.5272 335.3968 0019391 181.1624 178.9552 14.82557412303571 SL-14 R/B 1 16792U 86046B 10068.85384905 .00000109 00000-0 10706-4 0 1299 2 16792 82.4844 178.8617 0026282 31.7551 328.5237 14.81686170281358 SL-14 R/B 1 16882U 86055B 10068.77501283 .00000129 00000-0 13305-4 0 1234 2 16882 82.5209 197.2085 0020929 145.8678 214.3891 14.81635396274351 AJISAI (EGS) 1 16908U 86061A 10068.95097087 -.00000083 00000-0 10000-3 0 1870 2 16908 50.0096 61.8615 0011531 173.5470 186.5518 12.44463743740699 COSMOS 1812 1 17295U 87003A 10068.65252745 .00000112 00000-0 63147-5 0 1423 2 17295 82.5212 210.9153 0011524 207.5151 152.5465 15.02563585258598 SL-14 R/B 1 17567U 87024B 10068.84559357 .00000126 00000-0 12709-4 0 238 2 17567 82.5310 162.1856 0021437 97.0867 263.2786 14.82202169242805 COSMOS 1833 1 17589U 87027A 10068.80403592 -.00000064 00000-0 -85832-5 0 5438 2 17589 70.9099 6.7606 0005281 29.0496 331.0925 14.12729496185122 SL-16 R/B 1 17590U 87027B 10068.84514385 .00000246 00000-0 14750-3 0 4907 2 17590 71.0055 342.3573 0003956 16.5946 343.5294 14.16484284187944 SL-14 R/B 1 17912U 87038B 10068.90504753 .00000118 00000-0 12099-4 0 125 2 17912 82.5019 19.6336 0020237 333.2062 26.8113 14.81505149234264 COSMOS 1844 1 17973U 87041A 10068.63063218 .00000147 00000-0 10264-3 0 5681 2 17973 70.8981 110.8942 0030033 153.5847 206.6810 14.13741008177657 SL-14 R/B 1 18153U 87055B 10068.50157183 .00000052 00000-0 35925-5 0 186 2 18153 82.4960 75.6483 0021816 180.4676 179.6521 14.81731720224779 COSMOS 1867 1 18187U 87060A 10068.68726406 -.00000084 00000-0 59916-5 0 8302 2 18187 65.0101 102.0010 0017204 280.3349 79.5771 14.30861735183890 SL-14 R/B 1 18749U 88001B 10068.69034222 .00000088 00000-0 81716-5 0 253 2 18749 82.5094 271.1528 0021306 55.4615 304.8597 14.81673472196929 COSMOS 1933 1 18958U 88020A 10068.69162814 .00000159 00000-0 11575-4 0 9225 2 18958 82.5311 133.3825 0011503 275.6140 84.3761 14.96820039193344 SL-3 R/B 1 19046U 88032B 10068.73347327 .00000352 00000-0 36514-4 0 4484 2 19046 97.8695 112.7579 0036665 279.4659 80.2461 14.95993294174712 SL-16 R/B 1 19120U 88039B 10068.76979446 -.00000244 00000-0 -94112-4 0 8686 2 19120 71.0132 176.1376 0024696 295.8870 63.9726 14.18591675129569 COSMOS 1953 1 19210U 88050A 10068.56630542 .00000887 00000-0 75220-4 0 354 2 19210 82.5153 70.7267 0014749 261.0392 98.9150 14.96712270179385 SL-8 R/B 1 19257U 88053B 10068.46147079 -.00000073 00000-0 -15716-4 0 8244 2 19257 74.0473 56.6205 0021657 245.9481 113.9406 14.36415585137185 COSMOS 1975 1 19573U 88093A 10068.44947598 .00000013 00000-0 -11825-5 0 8040 2 19573 82.5251 16.4972 0015704 282.2282 77.7179 14.95483411161682 SL-14 R/B 1 19574U 88093B 10068.69164608 .00000083 00000-0 75163-5 0 44 2 19574 82.5293 105.7451 0020835 222.0918 137.8692 14.81772946155873 SL-16 R/B 1 19650U 88102B 10068.80759852 .00000273 00000-0 16365-3 0 1043 2 19650 70.9974 199.5679 0015943 264.3947 95.5352 14.15524608100064 INTERCOSMOS 24 1 20261U 89080A 10068.68016177 .00000230 00000-0 59181-4 0 1093 2 20261 82.5848 287.7782 1216005 90.3440 283.6729 12.53468328932849 SL-14 R/B 1 20262U 89080C 10068.81670828 .00000033 00000-0 46020-5 0 6105 2 20262 82.5960 315.8134 1241635 187.0587 171.1484 12.47775470930290 DELTA 1 R/B 1 20323U 89089B 10068.49553186 -.00000016 00000-0 47999-5 0 7090 2 20323 97.0831 43.9210 0074152 147.9834 212.5903 14.46782206 70418 DELTA 2 R/B(1) 1 20453U 90008B 10068.40821536 .00000848 00000-0 68669-4 0 7262 2 20453 35.6283 69.5945 0375027 82.6957 281.6193 14.59839168 56805 COSMOS 2058 1 20465U 90010A 10068.67622214 .00000066 00000-0 40768-5 0 7318 2 20465 82.4892 267.8059 0017213 188.9965 171.0917 14.91063708 88673 SL-14 R/B 1 20466U 90010B 10068.72320582 .00000143 00000-0 15741-4 0 6168 2 20466 82.5047 335.4171 0023014 56.5872 303.7554 14.79924502 84432 SL-14 R/B 1 20511U 90018B 10068.79972831 .00000080 00000-0 77797-5 0 6243 2 20511 82.5180 265.2028 0017547 168.7279 191.4326 14.78641543 79357 HST 1 20580U 90037B 10067.70905772 .00000596 00000-0 32829-4 0 5337 2 20580 28.4686 175.7772 0003420 210.2770 149.7669 15.00914957889643 SL-16 R/B 1 20625U 90046B 10068.84762186 -.00000159 00000-0 -58375-4 0 5345 2 20625 71.0019 323.2141 0015028 189.7357 170.3453 14.14383706 22214 COSMOS 2084 1 20663U 90055A 10068.86842178 .00000193 00000-0 39317-4 0 7779 2 20663 62.7935 48.8411 0127722 48.1953 312.9966 14.85407007 64426 SL-6 R/B(2) 1 20666U 90055D 10068.80539557 .00000215 00000-0 40040-4 0 8467 2 20666 62.7875 339.7458 0136695 65.7453 295.7849 14.86482575 65607 SL-8 R/B 1 20775U 90078B 10068.85861030 .00003187 00000-0 18181-3 0 1624 2 20775 82.9389 10.1011 0728091 45.1883 320.6273 13.98628260973302 SL-8 R/B 1 21088U 91006B 10068.82136245 .00000005 00000-0 -10592-4 0 6579 2 21088 82.9422 194.3985 0022133 190.6101 169.4598 13.76740694960055 OKEAN-3 1 21397U 91039A 10068.66377990 .00000272 00000-0 27479-4 0 9158 2 21397 82.5234 130.0325 0021683 80.8148 279.5534 14.86916609 14326 COSMOS 2151 1 21422U 91042A 10068.59709463 .00000536 00000-0 56205-4 0 5469 2 21422 82.4973 245.4675 0016819 129.6576 230.6130 14.87565817 13012 SL-14 R/B 1 21423U 91042B 10068.68306112 -.00000091 00000-0 -15501-4 0 4173 2 21423 82.4901 281.2977 0016650 307.7454 52.2264 14.78419338 9921 ERS-1 1 21574U 91050A 10068.67345776 -.00000025 00000-0 54458-5 0 6923 2 21574 98.1551 77.5646 0034018 355.4922 4.5953 14.35697957976184 ARIANE 40 R/B 1 21610U 91050F 10068.84103535 .00000111 00000-0 50719-4 0 2665 2 21610 98.6748 41.7842 0002553 302.7856 57.3087 14.39142718977818 UARS 1 21701U 91063B 10068.91918742 .00008659 00000-0 10581-3 0 9127 2 21701 56.9737 276.4983 0065049 337.6723 22.1504 15.58875411 20601 INTERCOSMOS 25 1 21819U 91086A 10068.72351760 .00000913 00000-0 18302-3 0 116 2 21819 82.5593 212.7529 1548228 313.6060 34.6222 11.99090107793197 SL-14 R/B 1 21820U 91086B 10068.85430671 .00000013 00000-0 -42597-5 0 9162 2 21820 82.5493 242.1516 1588764 52.6873 320.8650 11.90892374790292 SL-8 R/B 1 21876U 92008B 10068.76651445 .00000038 00000-0 24240-4 0 6765 2 21876 82.9234 291.1045 0033279 247.6586 112.1037 13.75381589906200 SL-8 R/B 1 21938U 92020B 10068.77952608 .00000053 00000-0 39117-4 0 7031 2 21938 82.9316 172.2438 0030453 44.4552 315.9042 13.75043258898209 SL-16 R/B 1 22220U 92076B 10068.76989971 -.00000304 00000-0 -12920-3 0 1317 2 22220 70.9958 249.6013 0012645 351.1412 8.9469 14.16151441894665 SL-16 R/B 1 22285U 92093B 10068.87817006 -.00000020 00000-0 14071-4 0 1390 2 22285 71.0213 23.4139 0006105 226.4545 133.6070 14.14747070886824 COSMOS 2228 1 22286U 92094A 10068.82353486 .00000330 00000-0 37505-4 0 9965 2 22286 82.5230 349.2324 0020233 265.8470 94.0431 14.83117832928199 SL-16 R/B 1 22566U 93016B 10068.57604691 .00000618 00000-0 34550-3 0 8683 2 22566 71.0046 241.9673 0011498 219.2720 140.7542 14.14665490875530 COSMOS 2242 1 22626U 93024A 10068.44814768 .00000271 00000-0 30129-4 0 7530 2 22626 82.5229 17.2199 0018784 268.4609 91.4452 14.83268840911774 SL-16 R/B 1 22803U 93059B 10068.58185045 .00000209 00000-0 12864-3 0 909 2 22803 70.9890 86.3296 0015741 113.5249 246.7539 14.16545166852052 ARIANE 40 R/B 1 22830U 93061H 10068.74143940 .00000022 00000-0 25142-4 0 9702 2 22830 98.6117 20.0702 0011446 139.1182 221.0861 14.30498408858339 COSMOS 2278 1 23087U 94023A 10068.66260841 -.00000016 00000-0 16638-4 0 1297 2 23087 71.0555 149.1961 0010673 303.6157 56.3940 14.13311791819105 SL-16 R/B 1 23088U 94023B 10068.59244147 .00000155 00000-0 10560-3 0 7613 2 23088 70.9985 96.8896 0004004 203.9925 156.0996 14.14470630819874 SL-16 R/B 1 23343U 94074B 10068.51510978 .00000031 00000-0 12207-4 0 7279 2 23343 98.0661 37.6156 0006190 300.3857 59.6708 14.75012719824979 SL-16 R/B 1 23405U 94077B 10068.92725483 -.00000048 00000-0 00000-0 0 2385 2 23405 70.9857 39.0558 0002080 340.2663 19.8385 14.14934724789755 ERS-2 1 23560U 95021A 10068.96587045 .00002186 00000-0 82623-3 0 9836 2 23560 98.5288 145.2504 0001353 93.7368 20.4172 14.32262511778259 ARIANE 40+ R/B 1 23561U 95021B 10068.60766143 .00000054 00000-0 33326-4 0 5549 2 23561 98.4745 19.8540 0006236 218.3591 141.7154 14.36414099779691 SL-16 R/B 1 23705U 95058B 10068.80316344 .00000023 00000-0 36211-4 0 575 2 23705 71.0212 201.1217 0011817 18.1488 342.0044 14.14878747741431 SL-16 R/B 1 24298U 96051B 10068.68198848 .00000575 00000-0 33743-3 0 2839 2 24298 70.8814 255.6641 0018002 189.7670 170.3110 14.12422378696720 ORBVIEW 2 (SEASTAR) 1 24883U 97037A 10068.84579109 .00000097 00000-0 30218-4 0 758 2 24883 98.3704 199.9102 0002535 98.3427 261.8064 14.60028135671200 SL-16 R/B 1 25400U 98043G 10068.91050459 -.00000020 00000-0 89896-5 0 4525 2 25400 98.3365 109.0465 0009707 169.7600 190.3777 14.25109027606719 SL-16 R/B 1 25407U 98045B 10068.79923551 .00000270 00000-0 16222-3 0 2763 2 25407 71.0081 222.5138 0009264 288.8974 71.1137 14.15514086600255 ISS (ZARYA) 1 25544U 98067A 10068.89511347 .00012964 00000-0 94119-4 0 7384 2 25544 51.6482 20.3579 0007750 32.8019 66.4622 15.73767716647830 SL-8 R/B 1 25723U 99022C 10068.71764709 .00001615 00000-0 97086-4 0 5114 2 25723 48.4403 153.3974 0022158 259.0630 100.7806 15.16351977599593 CZ-4B R/B 1 25732U 99025C 10068.85886017 -.00000020 00000-0 11082-4 0 3399 2 25732 98.6811 42.4972 0038295 117.5651 242.9422 14.17200878560335 OKEAN-O 1 25860U 99039A 10068.80589791 .00000079 00000-0 19420-4 0 9348 2 25860 97.8219 44.9418 0001838 61.6954 298.4434 14.73619801572266 SL-16 R/B 1 25861U 99039B 10068.85940551 .00000030 00000-0 11306-4 0 3019 2 25861 97.7323 51.1898 0017040 27.0004 333.2090 14.76634467573544 SL-14 R/B 1 26874U 01032B 10068.78282512 .00001418 00000-0 40018-4 0 3909 2 26874 82.4812 149.3978 0021274 272.1649 87.7163 15.35256985481017 ENVISAT 1 27386U 02009A 10068.80891934 .00000061 00000-0 38877-4 0 8526 2 27386 98.5473 137.3504 0000964 100.0952 36.1485 14.32248006419510 IDEFIX & ARIANE 42P R/B 1 27422U 02021B 10068.70334459 -.00000053 00000-0 -41282-5 0 2829 2 27422 98.4927 146.4801 0012701 159.9446 200.2242 14.28534646407311 AQUA 1 27424U 02022A 10068.88249294 .00000144 00000-0 41907-4 0 5794 2 27424 98.2090 11.8653 0001619 68.8255 291.3137 14.57122933417458 CZ-4B R/B 1 27432U 02024C 10068.83183003 .00000062 00000-0 54634-4 0 8181 2 27432 98.6083 47.7086 0051276 28.8902 331.5090 14.13618228403448 JB-3 2 (ZY 2B) 1 27550U 02049A 10068.95175763 .00001085 00000-0 45962-4 0 4227 2 27550 97.0848 94.6439 0007816 324.7416 125.4595 15.25119654409981 MIDORI II (ADEOS-II) 1 27597U 02056A 10068.68311619 .00000024 00000-0 27511-4 0 912 2 27597 98.4378 129.1430 0000519 146.8578 213.2634 14.26196755376637 H-2A R/B 1 27601U 02056E 10068.78774634 .00000052 00000-0 35551-4 0 8652 2 27601 98.5574 159.6290 0072443 220.0232 139.5601 14.30739721377840 H-2A R/B 1 27700U 03009C 10068.66581221 .00004826 00000-0 12213-3 0 728 2 27700 97.0039 84.6241 0039179 232.1137 127.6549 15.39420056388513 CZ-4B R/B 1 28059U 03049C 10068.83238682 .00000018 00000-0 16516-4 0 8187 2 28059 98.5546 200.2396 0052066 44.2464 316.2883 14.51457165338204 CZ-2C R/B 1 28222U 04012C 10068.62654016 -.00000344 00000-0 -23999-4 0 8840 2 28222 97.4021 107.4410 0053428 239.6179 119.9774 14.97155392321692 SL-16 R/B 1 28353U 04021B 10068.80536856 .00000328 00000-0 19806-3 0 5877 2 28353 70.9972 248.0585 0006542 267.5626 92.4744 14.13928364296659 CZ-4B R/B 1 28471U 04044B 10068.96887871 .00004568 00000-0 10244-3 0 5929 2 28471 96.9672 85.6338 0102608 113.0571 248.1534 15.38409353298749 CZ-2C R/B 1 28480U 04046B 10067.62741748 -.00000182 00000-0 -54763-4 0 6156 2 28480 98.1703 323.3408 0143885 158.6608 202.0628 14.24841936275701 ARIANE 5 R/B 1 28499U 04049H 10068.91213382 .00000056 00000-0 15257-4 0 6580 2 28499 98.2933 58.5599 0098073 102.5789 258.6412 14.77152643281502 CZ-2D R/B 1 28738U 05024B 10068.93266016 .00001186 00000-0 97893-4 0 6057 2 28738 97.7757 89.0880 0012261 12.1703 347.9811 15.00904411256114 SUZAKU (ASTRO-EII) 1 28773U 05025A 10068.32708114 .00000585 00000-0 39122-4 0 2183 2 28773 31.4050 29.4950 0006610 298.9644 61.0336 15.00970741256079 ALOS (DAICHI) 1 28931U 06002A 10068.79312306 .00000155 00000-0 42155-4 0 6222 2 28931 98.1605 145.1650 0001160 97.3516 262.7803 14.59570683219643 H-2A R/B 1 28932U 06002B 10068.72616910 .00000238 00000-0 34308-4 0 3358 2 28932 98.2341 201.5224 0105586 299.8336 59.2416 14.82727605223044 AKARI (ASTRO-F) 1 28939U 06005A 10068.73285976 .00000099 00000-0 31873-4 0 2250 2 28939 98.2545 74.6896 0009336 78.6749 281.5500 14.57603255214778 M-V-8 R/B 1 28942U 06005D 10068.93180181 .00028260 28308-5 17961-3 0 1737 2 28942 98.1542 266.3357 0143519 312.5263 46.3944 15.63884313227354 RESURS-DK 1 1 29228U 06021A 10068.91056162 .00002035 00000-0 46697-4 0 2019 2 29228 69.9331 23.0462 0156064 105.6729 256.1721 15.33079621209041 COSMOS 2421 1 29247U 06026A 10068.54835715 .00050050 00000-0 37330-3 0 9888 2 29247 65.0325 86.6198 0013264 283.7326 76.2292 15.72343796210628 GENESIS 1 1 29252U 06029A 10068.79679675 .00000289 00000-0 33888-4 0 9991 2 29252 64.5091 225.4453 0002954 34.6023 325.5266 15.03541098200849 H-2A R/B 1 29394U 06037B 10068.92613009 .00008132 00000-0 18449-3 0 813 2 29394 97.3507 199.7849 0035347 116.1250 244.3617 15.42656870196114 CZ-4B R/B 1 29507U 06046C 10068.62660434 .00000207 00000-0 25236-4 0 1044 2 29507 97.6633 71.4236 0045139 146.0691 214.3462 14.92500726183843 SL-8 R/B 1 29659U 06060B 10068.91117593 .00002212 00000-0 78962-4 0 9627 2 29659 98.0910 195.8032 0038371 35.4758 324.9017 15.29449725179632 ATLAS 5 CENTAUR R/B 1 30778U 07006G 10068.72416288 .00001527 00000-0 79480-4 0 8098 2 30778 35.7027 184.7570 0030775 51.1957 309.1506 15.16139403166418 CZ-2C R/B 1 31114U 07010B 10068.59302074 .00000093 00000-0 62687-4 0 7615 2 31114 98.2431 92.9230 0060475 19.5173 340.8296 14.18643847150781 GENESIS 2 1 31789U 07028A 10068.94367120 .00000298 00000-0 34891-4 0 7538 2 31789 64.5051 256.4319 0043120 223.3537 136.4193 15.03213624148070 COSMOS 2428 1 31792U 07029A 10068.86735763 .00000137 00000-0 10000-3 0 9962 2 31792 70.9753 215.4205 0010545 317.5707 186.8274 14.12278931139006 SL-16 R/B 1 31793U 07029B 10068.83587534 .00000293 00000-0 17922-3 0 7917 2 31793 70.9751 207.0853 0001632 259.8296 100.2638 14.14058684139163